Location: Lake Mineral Wells State Park
(32.8157°N, 98.0290°W)
Time: 06:07:53
(UTC-06:00)

Envisat - Pass Details

Date: 24 October 2019
Orbit: 764 x 766 km, 98.1° (Epoch: 14 November)

Event Time Altitude Azimuth Distance (km) Brightness Sun altitude
Rises 19:57:38 0° 175° (S) 3,216 6.2 -15.0°
Reaches altitude 10° 19:59:57 10° 179° (S) 2,293 5.5 -15.5°
Maximum altitude 20:04:57 60° 259° (W) 870 3.6 -16.6°
Drops below altitude 10° 20:09:58 10° 340° (NNW) 2,306 5.7 -17.6°
Sets 20:12:19 0° 344° (NNW) 3,235 6.4 -18.1°
